Flag for Austria Weather past 2 weeks in Ternitz, Lower Austria, Austria

50 °F


Feels Like: 47 °F
Forecast: 47 / 55 °F
Wind: 7 mph from North

Location: Vienna Schwechat-Flughafen Airport

Current Time: Oct 10, 2015 at 12:53:26 AM

Latest Report: Oct 9, 2015 at 11:50 PM

Visibility: 6 mi

Pressure: 30.12 "Hg

Humidity: 82%

Dew point: 45 °F

Location of TernitzLocation

Historic Weather in Ternitz — Graph


Ternitz temperature yesterday

Maximum temperature yesterday: 59 °F (at 10:50 AM)
Minimum temperature yesterday: 50 °F (at 8:50 PM)
Average temperature yesterday: 55 °F

Past Weeks' High & Low Weather Summary

High70 °F (Oct 3, 3:50 PM)100% (Oct 1, 5:20 AM)30.51 "Hg (Oct 1, 5:20 AM)
Low41 °F (Oct 1, 5:20 AM)39% (Sep 28, 2:20 PM)29.83 "Hg (Oct 6, 2:50 PM)
Average56 °F77%30.18 "Hg
* Reported Sep 24 11:20 PM — Oct 9 11:50 PM, Ternitz, Weather by CustomWeather, © 2015

Note: Actual official high and low records may vary slightly from our data, if they occured in-between our weather recording intervals... More about our weather records


Ternitz weather history for previous 24 hours

Time TempWeatherWind HumidityBarometerVisibility
11:50 PM
Fri, Oct 9
50 °FOvercast.7 mph82%30.12 "Hg6 mi
10:50 PM50 °FPassing clouds.7 mph88%30.12 "Hg5 mi
10:20 PM50 °FPassing clouds.8 mph94%30.12 "Hg5 mi
9:50 PM50 °FPassing clouds.5 mph94%30.12 "Hg5 mi
9:20 PM52 °FPassing clouds.3 mph88%30.12 "Hg6 mi
8:50 PM50 °FPassing clouds.6 mph94%30.12 "HgN/A
8:20 PM52 °FPassing clouds.5 mph94%30.12 "HgN/A
7:50 PM54 °FPassing clouds.3 mph88%30.12 "HgN/A
7:20 PM54 °FPassing clouds.2 mph88%30.12 "HgN/A
6:50 PM54 °FPartly sunny.3 mph94%30.12 "HgN/A
6:20 PM55 °FPartly sunny.6 mph88%30.09 "Hg5 mi
5:50 PM55 °FBroken clouds.6 mph88%30.09 "Hg4 mi
5:20 PM57 °FBroken clouds.7 mph88%30.09 "Hg6 mi
4:50 PM57 °FBroken clouds.7 mph88%30.09 "HgN/A
4:20 PM57 °FPartly sunny.6 mph88%30.09 "Hg5 mi
3:50 PM55 °FFog.6 mph100%30.09 "Hg4 mi
3:20 PM55 °FFog.5 mph94%30.09 "Hg4 mi
2:50 PM55 °FBroken clouds.7 mph94%30.09 "Hg4 mi
2:20 PM55 °FFog.6 mph94%30.09 "Hg3 mi
1:50 PM55 °FFog.6 mph94%30.09 "Hg3 mi
1:20 PM55 °FFog.6 mph94%30.09 "Hg3 mi
12:50 PM57 °FFog.7 mph94%30.09 "Hg4 mi
12:20 PM59 °FBroken clouds.7 mph82%30.09 "HgN/A
11:50 AM59 °FBroken clouds.8 mph82%30.09 "HgN/A
11:20 AM59 °FBroken clouds.9 mph82%30.09 "HgN/A
10:50 AM59 °FPartly sunny.8 mph82%30.09 "HgN/A
10:20 AM57 °FPartly sunny.8 mph88%30.09 "HgN/A
9:50 AM57 °FPartly sunny.7 mph88%30.09 "HgN/A
9:20 AM57 °FPartly sunny.8 mph88%30.09 "HgN/A
8:50 AM57 °FPartly sunny.9 mph88%30.09 "HgN/A
8:20 AM57 °FPartly sunny.9 mph88%30.09 "HgN/A
7:50 AM55 °FPassing clouds.9 mph94%30.09 "HgN/A
7:20 AM55 °FPassing clouds.8 mph94%30.07 "HgN/A
6:50 AM55 °FPassing clouds.9 mph94%30.07 "HgN/A
6:20 AM55 °FPassing clouds.8 mph94%30.07 "HgN/A
5:50 AM55 °FPassing clouds.9 mph94%30.07 "HgN/A
5:20 AM55 °FPassing clouds.8 mph94%30.07 "HgN/A
4:50 AM55 °FPassing clouds.7 mph94%30.07 "HgN/A
4:20 AM55 °FPassing clouds.9 mph94%30.07 "HgN/A
3:50 AM55 °FPassing clouds.9 mph94%30.09 "HgN/A
3:20 AM55 °FPassing clouds.9 mph94%30.09 "HgN/A
2:50 AM55 °FPartly cloudy.6 mph100%30.09 "HgN/A
2:20 AM55 °FPassing clouds.7 mph100%30.09 "Hg5 mi
1:50 AM55 °FPassing clouds.8 mph100%30.09 "Hg5 mi
1:20 AM55 °FPassing clouds.5 mph100%30.09 "HgN/A
12:50 AM55 °FPassing clouds.5 mph100%30.09 "HgN/A
12:20 AM55 °FPassing clouds.7 mph94%30.09 "HgN/A
Weather by CustomWeather, © 2015

See weather overviewHow to use our weather pages